Regional Weather Roundup
Issued by NWS State College, PA

Home | Current Version | Previous Version | Graphics & Text | Print | Product List | Glossary Off
Versions: 1 2 3 4 5 6 7 8 9 10 11 12 13 14 15 16 17 18 19 20 21 22 23 24 25 26 27 28 29 30 31 32 33 34 35 36 37 38 39 40 41 42 43 44 45 46 47 48 49 50

000
ASUS41 KCTP 210810
RWRCTP

REGIONAL WEATHER ROUNDUP
NATIONAL WEATHER SERVICE STATE COLLEGE PA
400 AM EDT TUE OCT 21 2014

Note: "fair" indicates few or no clouds below 12,000 feet with no
significant weather and/or obstructions to visibility.

* = STATION THAT DOES NOT REPORT PRECIPITATION /E.G. RAIN...SNOW...ETC/
    THUNDER OR FOG.

PAZ002>004-007>009-013>016-020>023-029>032-210900-
WESTERN PENNSYLVANIA

CITY           SKY/WX    TMP DP  RH WIND       PRES   REMARKS
ERIE           CLOUDY    54  49  83 N7        29.81S
MEADVILLE      CLOUDY    50  48  93 CALM      29.81S FOG
FRANKLIN*      CLOUDY    48  45  87 SW7       29.83S
NEW CASTLE       N/A     50  50 100 CALM      29.84F FOG
BEAVER COUNTY  NOT AVBL
BUTLER*        CLOUDY    48  46  93 SW6       29.85S
PITTSBURGH INT CLOUDY    50  49  96 SW7       29.84F
PITTSBURGH     CLOUDY    50  46  86 SW7       29.83F
INDIANA*       CLOUDY    50  48  93 W5        29.87F FOG
LATROBE        MOCLDY    52  50  93 S7        29.85F
WASHINGTON CO* CLOUDY    50  46  87 W6        29.86F
$$

PAZ004>006-010>012-017>019-024>028-033>037-041-042-045-046-049>053-210900-
CENTRAL PENNSYLVANIA

CITY           SKY/WX    TMP DP  RH WIND       PRES   REMARKS
BRADFORD       LGT RAIN  46  44  93 S5        29.80F
DUBOIS         CLOUDY    47  46  97 SW7       29.81F
CLEARFIELD     LGT RAIN  46  45  96 CALM      29.83F FOG
JOHNSTOWN      CLOUDY    48  42  80 SW7       29.84F
ALTOONA        CLOUDY    49  44  83 S6        29.85F
STATE COLLEGE  RAIN      47  44  87 W5        29.85S
WILLIAMSPORT   CLOUDY    50  43  77 CALM      29.84S
SELINSGROVE    CLOUDY    52  46  80 CALM      29.86F
FT INDIANTOWN  CLOUDY    50  50 100 N1        29.87F FOG
CAPITAL CITY   CLOUDY    53  51  93 CALM      29.87F
HARRISBURG     CLOUDY    52  51  97 NE3       29.85F
YORK           CLOUDY    52  50  93 CALM      29.86F
$$

PAZ038>040-043-044-047-048-054-055-060>062-067>071-210900-
EASTERN PENNSYLVANIA

CITY           SKY/WX    TMP DP  RH WIND       PRES   REMARKS
SCRANTON       CLOUDY    53  45  74 W5        29.86F
MOUNT POCONO   LGT RAIN  48  45  89 W3        29.87F
ALLENTOWN      LGT RAIN  51  48  89 CALM      29.89F
QUAKERTOWN*    CLOUDY    48  48 100 CALM      29.91S
READING        LGT RAIN  53  50  89 CALM      29.86F
LANCASTER      CLOUDY    52  50  93 E5        29.86F
COATESVILLE    CLOUDY    50  48  93 CALM      29.89F
POTTSTOWN      LGT RAIN  50  49  96 CALM      29.90F
BLUE BELL      CLOUDY    52  48  87 CALM      29.89F
DOYLESTOWN     CLOUDY    50  46  86 CALM      29.89F
WILLOW GROVE   NOT AVBL
NORTH PHILA    CLOUDY    53  45  74 CALM      29.92F
PHILADELPHIA   CLOUDY    54  47  77 CALM      29.90F
$$


USA.gov is the U.S. government's official web portal to all federal, state and local government web resources and services.